Weather History for KMDQ - March, 2014

Change the Weather History Date:

Monday, March 17, 2014

  Actual Average (KHSV) Record (KHSV)
Temperature  
Mean Temperature 37 °F 54 °F  
Max Temperature 41 °F 65 °F 82 °F (1963)
Min Temperature 33 °F 42 °F 21 °F (1956)
Degree Days  
Heating Degree Days 28 12  
Month to date heating degree days 232  
Since 1 July heating degree days 2684  
Moisture  
Dew Point 32 °F    
Average Humidity 87    
Maximum Humidity 93    
Minimum Humidity 81    
Precipitation  
Precipitation 0.00 in 0.16 in 2.46 in (1980)
Month to date precipitation 2.82  
Year to date precipitation 12.55  
Snow  
Snow 0.00 in - - ()
Month to date snowfall  
Since 1 July snowfall  
Snow Depth -    
Sea Level Pressure  
Sea Level Pressure 29.78 in    
Wind  
Wind Speed 10 mph (North)    
Max Wind Speed 17 mph    
Max Gust Speed 18 mph    
Visibility 8 miles    
Events      
T = Trace of Precipitation, MM = Missing Value Source: NWS Daily Summary

Daily Weather History Graph

Daily Weather History Graph

Search for Another Location

Airport or City:

Trip Planner

Search our weather history database for the weather conditions in past years. The results will help you decide how hot, cold, wet, or windy it might be!

Date:

Astronomy

Mar. 17, 2014 Rise Set
Actual Time 6:54 AM CDT 6:55 PM CDT
Civil Twilight 6:28 AM CDT 7:20 PM CDT
Nautical Twilight 5:59 AM CDT 7:50 PM CDT
Astronomical Twilight 5:29 AM CDT 8:19 PM CDT
Moon 8:07 PM CDT (3/17) 7:12 AM CDT (3/17)
Length of Visible Light 12h 51m
Length of Day
12h 01m
Full, 99% of the Moon is Illuminated
Mar 17
Full
Mar 23
Last Quarter
Mar 30
New
Apr 7
First Quarter
Apr 15
Full

Hourly Weather History & Observations

Time (CDT) Temp. Windchill Dew Point Humidity Pressure Visibility Wind Dir Wind Speed Gust Speed Precip Events Conditions
12:15 AM 41.0 °F 33.9 °F 37.4 °F 87% 29.72 in 7.0 mi North 12.7 mph - N/A   Overcast
12:35 AM 39.2 °F 31.2 °F 35.6 °F 87% 29.73 in 10.0 mi North 13.8 mph - N/A   Overcast
12:55 AM 39.2 °F 33.0 °F 35.6 °F 87% 29.73 in 10.0 mi North 9.2 mph 18.4 mph N/A   Overcast
1:15 AM 39.2 °F 32.5 °F 35.6 °F 87% 29.73 in 10.0 mi North 10.4 mph - N/A   Overcast
1:35 AM 37.4 °F 27.8 °F 35.6 °F 93% 29.74 in 10.0 mi North 17.3 mph - N/A   Overcast
1:55 AM 37.4 °F 29.8 °F 33.8 °F 87% 29.74 in 10.0 mi North 11.5 mph 18.4 mph N/A   Overcast
2:15 AM 37.4 °F 28.9 °F 33.8 °F 87% 29.75 in 10.0 mi North 13.8 mph - N/A   Overcast
2:35 AM 37.4 °F 29.3 °F 33.8 °F 87% 29.75 in 10.0 mi North 12.7 mph - N/A   Overcast
2:55 AM 37.4 °F 29.8 °F 33.8 °F 87% 29.74 in 10.0 mi North 11.5 mph - N/A   Overcast
3:15 AM 37.4 °F 29.3 °F 32.0 °F 81% 29.74 in 10.0 mi North 12.7 mph - N/A   Overcast
3:35 AM 37.4 °F 30.3 °F 32.0 °F 81% 29.73 in 10.0 mi North 10.4 mph - N/A   Overcast
3:55 AM 35.6 °F 27.5 °F 32.0 °F 87% 29.71 in 10.0 mi North 11.5 mph 17.3 mph N/A   Overcast
4:15 AM 35.6 °F 28.0 °F 32.0 °F 87% 29.69 in 10.0 mi NNE 10.4 mph - N/A   Overcast
4:35 AM 35.6 °F 28.6 °F 32.0 °F 87% 29.69 in 10.0 mi North 9.2 mph 17.3 mph N/A   Overcast
4:55 AM 35.6 °F 27.5 °F 32.0 °F 87% 29.71 in 10.0 mi North 11.5 mph 16.1 mph N/A   Overcast
5:15 AM 37.4 °F 29.8 °F 32.0 °F 81% 29.74 in 10.0 mi NNW 11.5 mph - N/A   Overcast
5:35 AM 35.6 °F 27.5 °F 32.0 °F 87% 29.77 in 10.0 mi NNW 11.5 mph - N/A   Overcast
5:55 AM 35.6 °F 27.5 °F 32.0 °F 87% 29.77 in 10.0 mi North 11.5 mph - N/A   Overcast
6:15 AM 35.6 °F 27.5 °F 32.0 °F 87% 29.76 in 7.0 mi North 11.5 mph - N/A   Overcast
6:35 AM 35.6 °F 27.5 °F 32.0 °F 87% 29.75 in 7.0 mi North 11.5 mph - N/A   Overcast
6:55 AM 35.6 °F 27.1 °F 32.0 °F 87% 29.78 in 10.0 mi North 12.7 mph - N/A   Overcast
7:15 AM 33.8 °F 25.8 °F 32.0 °F 93% 29.78 in 10.0 mi North 10.4 mph - N/A   Overcast
7:35 AM 33.8 °F 25.3 °F 32.0 °F 93% 29.79 in 5.0 mi North 11.5 mph - N/A   Overcast
7:55 AM 33.8 °F 25.3 °F 32.0 °F 93% 29.79 in 7.0 mi North 11.5 mph - N/A   Overcast
8:15 AM 33.8 °F 27.7 °F 32.0 °F 93% 29.80 in 10.0 mi NNE 6.9 mph 10.4 mph N/A   Overcast
8:35 AM 33.8 °F 27.7 °F 32.0 °F 93% 29.78 in 10.0 mi NNE 6.9 mph - N/A   Overcast
8:55 AM 33.8 °F 26.4 °F 32.0 °F 93% 29.80 in 7.0 mi North 9.2 mph - N/A   Overcast
9:15 AM 33.8 °F 25.3 °F 32.0 °F 93% 29.79 in 7.0 mi North 11.5 mph - N/A   Overcast
9:35 AM 33.8 °F 25.8 °F 32.0 °F 93% 29.80 in 10.0 mi North 10.4 mph - N/A   Overcast
9:55 AM 33.8 °F 24.8 °F 32.0 °F 93% 29.81 in 7.0 mi North 12.7 mph - N/A   Overcast
10:15 AM 33.8 °F 24.8 °F 32.0 °F 93% 29.80 in 10.0 mi North 12.7 mph 16.1 mph N/A   Overcast
10:35 AM 33.8 °F 25.3 °F 30.2 °F 87% 29.81 in 10.0 mi North 11.5 mph - N/A   Overcast
10:55 AM 33.8 °F 27.0 °F 30.2 °F 87% 29.79 in 10.0 mi North 8.1 mph - N/A   Overcast
11:15 AM 33.8 °F 27.0 °F 30.2 °F 87% 29.80 in 10.0 mi North 8.1 mph - N/A   Overcast
11:35 AM 33.8 °F 27.0 °F 30.2 °F 87% 29.81 in 10.0 mi North 8.1 mph - N/A   Overcast
11:55 AM 35.6 °F 27.5 °F 32.0 °F 87% 29.80 in 10.0 mi North 11.5 mph - N/A   Overcast
12:15 PM 35.6 °F 29.9 °F 30.2 °F 81% 29.80 in 7.0 mi North 6.9 mph - N/A   Overcast
12:35 PM 35.6 °F 30.7 °F 32.0 °F 87% 29.79 in 10.0 mi North 5.8 mph - N/A   Overcast
12:55 PM 33.8 °F 29.6 °F 30.2 °F 87% 29.80 in 7.0 mi North 4.6 mph - N/A   Overcast
1:15 PM 35.6 °F 29.9 °F 32.0 °F 87% 29.80 in 7.0 mi NNW 6.9 mph - N/A   Overcast
1:35 PM 35.6 °F 29.9 °F 32.0 °F 87% 29.79 in 7.0 mi NNE 6.9 mph - N/A   Overcast
1:55 PM 35.6 °F 30.7 °F 32.0 °F 87% 29.78 in 7.0 mi North 5.8 mph - N/A   Overcast
2:15 PM 35.6 °F 28.0 °F 32.0 °F 87% 29.77 in 7.0 mi North 10.4 mph - N/A   Overcast
2:35 PM 35.6 °F 29.2 °F 32.0 °F 87% 29.77 in 7.0 mi North 8.1 mph - N/A   Overcast
2:55 PM 35.6 °F 29.2 °F 32.0 °F 87% 29.77 in 10.0 mi North 8.1 mph - N/A   Overcast
3:15 PM 35.6 °F 28.0 °F 32.0 °F 87% 29.77 in 10.0 mi North 10.4 mph - N/A   Overcast
3:35 PM 35.6 °F 29.9 °F 32.0 °F 87% 29.77 in 10.0 mi North 6.9 mph - N/A   Overcast
3:55 PM 35.6 °F 29.9 °F 32.0 °F 87% 29.77 in 10.0 mi North 6.9 mph - N/A   Overcast
4:15 PM 35.6 °F 29.9 °F 32.0 °F 87% 29.77 in 10.0 mi NNE 6.9 mph - N/A   Overcast
4:35 PM 37.4 °F 31.4 °F 32.0 °F 81% 29.77 in 10.0 mi North 8.1 mph - N/A   Overcast
4:55 PM 37.4 °F 32.1 °F 32.0 °F 81% 29.77 in 10.0 mi North 6.9 mph - N/A   Overcast
5:15 PM 37.4 °F 32.8 °F 32.0 °F 81% 29.77 in 10.0 mi North 5.8 mph - N/A   Overcast
5:35 PM 37.4 °F 33.8 °F 32.0 °F 81% 29.77 in 7.0 mi NNE 4.6 mph - N/A   Overcast
5:55 PM 37.4 °F 32.1 °F 32.0 °F 81% 29.78 in 7.0 mi North 6.9 mph - N/A   Overcast
6:15 PM 37.4 °F 32.1 °F 32.0 °F 81% 29.79 in 7.0 mi North 6.9 mph - N/A   Overcast
6:35 PM 35.6 °F 30.7 °F 32.0 °F 87% 29.79 in 7.0 mi North 5.8 mph - N/A   Overcast
6:55 PM 35.6 °F 29.2 °F 32.0 °F 87% 29.80 in 10.0 mi North 8.1 mph - N/A   Overcast
7:15 PM 37.4 °F 30.8 °F 32.0 °F 81% 29.82 in 10.0 mi North 9.2 mph - N/A   Overcast
7:35 PM 35.6 °F 29.9 °F 32.0 °F 87% 29.83 in 10.0 mi North 6.9 mph - N/A   Overcast
7:55 PM 37.4 °F 32.8 °F 32.0 °F 81% 29.84 in 10.0 mi North 5.8 mph - N/A   Overcast
8:15 PM 35.6 °F 29.9 °F 32.0 °F 87% 29.84 in 7.0 mi North 6.9 mph - N/A   Overcast
8:35 PM 35.6 °F 32.8 °F 32.0 °F 87% 29.84 in 5.0 mi NNE 3.5 mph - N/A   Haze
8:55 PM 35.6 °F 32.8 °F 32.0 °F 87% 29.84 in 5.0 mi NNE 3.5 mph - N/A   Haze
9:15 PM 35.6 °F - 32.0 °F 87% 29.84 in 7.0 mi Calm Calm - N/A   Overcast
9:35 PM 35.6 °F - 32.0 °F 87% 29.84 in 7.0 mi Calm Calm - N/A   Overcast
9:55 PM 35.6 °F 32.8 °F 32.0 °F 87% 29.85 in 5.0 mi North 3.5 mph - N/A   Haze
10:35 PM 35.6 °F 32.8 °F 32.0 °F 87% 29.86 in 2.0 mi North 3.5 mph - N/A   Overcast
10:55 PM 35.6 °F - 33.8 °F 93% 29.87 in 2.0 mi Calm Calm - N/A   Overcast
11:15 PM 35.6 °F 32.8 °F 33.8 °F 93% 29.86 in 1.8 mi North 3.5 mph - N/A   Overcast
11:35 PM 35.6 °F - 33.8 °F 93% 29.86 in 1.8 mi Calm Calm - N/A   Overcast
11:55 PM 35.6 °F - 33.8 °F 93% 29.86 in 1.8 mi Calm Calm - N/A   Overcast